Weather History for KSEZ - December, 2012

Change the Weather History Date:

Friday, December 14, 2012

  Actual Average (KFLG) Record (KFLG)
Temperature  
Mean Temperature 40 °F 29 °F  
Max Temperature 44 °F 42 °F 66 °F (1946)
Min Temperature 37 °F 17 °F -14 °F (1972)
Degree Days  
Heating Degree Days 24 36  
Month to date heating degree days 485  
Since 1 July heating degree days 2217  
Cooling Degree Days 0 0  
Month to date cooling degree days 0  
Year to date cooling degree days 117  
Moisture  
Dew Point 35 °F    
Average Humidity 85    
Maximum Humidity 100    
Minimum Humidity 70    
Precipitation  
Precipitation 0.76 in 0.06 in 1.41 in (1967)
Month to date precipitation 0.80  
Year to date precipitation 20.79  
Snow  
Snow 0.00 in 0.50 in 15.50 in (1967)
Month to date snowfall 7.2  
Since 1 July snowfall 19.4  
Snow Depth -    
Sea Level Pressure  
Sea Level Pressure 29.82 in    
Wind  
Wind Speed 11 mph (South)    
Max Wind Speed 22 mph    
Max Gust Speed 33 mph    
Visibility 9 miles    
Events Rain    
T = Trace of Precipitation, MM = Missing Value Source: NWS Daily Summary

Daily Weather History Graph

Daily Weather History Graph

Search for Another Location

Airport or City:

Trip Planner

Search our weather history database for the weather conditions in past years. The results will help you decide how hot, cold, wet, or windy it might be!

Date:

Astronomy

Dec. 14, 2012 Rise Set
Actual Time 7:27 AM MST 5:17 PM MST
Civil Twilight 6:59 AM MST 5:45 PM MST
Nautical Twilight 6:27 AM MST 6:16 PM MST
Astronomical Twilight 5:56 AM MST 6:47 PM MST
Moon 8:37 AM MST (12/14) 7:11 PM MST (12/14)
Length of Visible Light 10h 46m
Length of Day
9h 50m
Waxing Crescent, 3% of the Moon is Illuminated
Dec 14
Waxing Crescent
Dec 19
First Quarter
Dec 28
Full
Jan 4
Last Quarter
Jan 11
New

Hourly Weather History & Observations

Time (MST) Temp. Windchill Dew Point Humidity Pressure Visibility Wind Dir Wind Speed Gust Speed Precip Events Conditions
12:15 AM 42.8 °F 34.8 °F 42.8 °F 100% 29.75 in 5.0 mi SSE 17.3 mph 20.7 mph 0.08 in Rain Rain
12:35 AM 42.8 °F 35.8 °F 41.0 °F 93% 29.72 in 10.0 mi SSE 13.8 mph - 0.09 in Rain Light Rain
12:55 AM 42.8 °F 41.1 °F 41.0 °F 93% 29.71 in 7.0 mi SSE 3.5 mph 17.3 mph 0.12 in Rain Rain
1:15 AM 42.8 °F 38.0 °F 41.0 °F 93% 29.70 in 7.0 mi NW 8.1 mph - 0.05 in Rain Rain
1:35 AM 42.8 °F 41.1 °F 41.0 °F 93% 29.70 in 7.0 mi South 3.5 mph - 0.08 in Rain Rain
1:55 AM 44.6 °F - 41.0 °F 87% 29.68 in 7.0 mi Calm Calm - 0.13 in Rain Rain
2:15 AM 42.8 °F 41.1 °F 41.0 °F 93% 29.66 in 10.0 mi East 3.5 mph - 0.02 in Rain Light Rain
2:35 AM 42.8 °F 38.6 °F 41.0 °F 93% 29.65 in 10.0 mi ESE 6.9 mph - 0.02 in Rain Light Rain
2:55 AM 42.8 °F 35.8 °F 41.0 °F 93% 29.67 in 10.0 mi WSW 13.8 mph - 0.05 in Rain Rain
3:15 AM 41.0 °F 34.7 °F 41.0 °F 100% 29.69 in 7.0 mi SSW 10.4 mph 16.1 mph 0.08 in Rain Rain
3:35 AM 41.0 °F 33.5 °F 39.2 °F 93% 29.68 in 5.0 mi SE 13.8 mph 21.9 mph 0.19 in Rain Rain
4:15 AM 39.2 °F 34.2 °F 37.4 °F 93% 29.66 in 7.0 mi ENE 6.9 mph - 0.02 in Rain Rain
4:35 AM 39.2 °F - 37.4 °F 93% 29.65 in 10.0 mi Calm Calm - 0.04 in Rain Light Rain
4:55 AM 41.0 °F 33.9 °F 37.4 °F 87% 29.66 in 7.0 mi SSE 12.7 mph 19.6 mph 0.07 in Rain Rain
5:15 AM 39.2 °F 31.6 °F 37.4 °F 93% 29.66 in 7.0 mi South 12.7 mph 17.3 mph 0.04 in Rain Light Rain
5:35 AM 39.2 °F 32.0 °F 37.4 °F 93% 29.66 in 7.0 mi SE 11.5 mph - 0.08 in Rain Light Rain
5:55 AM 39.2 °F 32.0 °F 37.4 °F 93% 29.65 in 7.0 mi SSE 11.5 mph 18.4 mph 0.10 in Rain Light Rain
6:15 AM 39.2 °F 30.2 °F 37.4 °F 93% 29.66 in 10.0 mi SSE 17.3 mph 25.3 mph N/A Rain Light Rain
6:35 AM 37.4 °F 28.9 °F 37.4 °F 100% 29.68 in 3.0 mi South 13.8 mph 19.6 mph 0.04 in Rain Rain
6:55 AM 39.2 °F 31.6 °F 37.4 °F 93% 29.69 in 7.0 mi South 12.7 mph 23.0 mph 0.06 in Rain Rain
7:15 AM 39.2 °F 30.2 °F 37.4 °F 93% 29.69 in 10.0 mi South 17.3 mph 24.2 mph 0.01 in Rain Light Rain
7:35 AM 39.2 °F 31.2 °F 37.4 °F 93% 29.70 in 10.0 mi SSW 13.8 mph 26.5 mph 0.01 in Rain Light Rain
7:55 AM 39.2 °F 31.2 °F 37.4 °F 93% 29.71 in 3.0 mi SSW 13.8 mph 23.0 mph 0.02 in Rain Rain
8:15 AM 39.2 °F 31.6 °F 37.4 °F 93% 29.72 in 5.0 mi South 12.7 mph 21.9 mph N/A   Overcast
8:35 AM 37.4 °F 31.4 °F 37.4 °F 100% 29.74 in 4.0 mi South 8.1 mph - 0.01 in Rain Light Rain
8:55 AM 39.2 °F 32.0 °F 37.4 °F 93% 29.75 in 10.0 mi South 11.5 mph 19.6 mph 0.02 in   Overcast
9:15 AM 39.2 °F 33.0 °F 37.4 °F 93% 29.77 in 10.0 mi SSE 9.2 mph 18.4 mph N/A   Overcast
9:35 AM 39.2 °F 31.6 °F 37.4 °F 93% 29.77 in 10.0 mi South 12.7 mph 18.4 mph N/A   Overcast
9:55 AM 39.2 °F 30.5 °F 35.6 °F 87% 29.80 in 10.0 mi SSE 16.1 mph 32.2 mph N/A   Overcast
10:15 AM 39.2 °F 29.0 °F 35.6 °F 87% 29.81 in 10.0 mi South 21.9 mph 28.8 mph N/A   Overcast
10:35 AM 39.2 °F 31.2 °F 35.6 °F 87% 29.82 in 10.0 mi South 13.8 mph 24.2 mph N/A   Overcast
11:15 AM 37.4 °F 27.8 °F 33.8 °F 87% 29.84 in 10.0 mi South 17.3 mph 27.6 mph N/A   Overcast
11:35 AM 37.4 °F 28.9 °F 33.8 °F 87% 29.84 in 10.0 mi South 13.8 mph 21.9 mph N/A   Overcast
11:55 AM 37.4 °F 29.3 °F 33.8 °F 87% 29.84 in 10.0 mi South 12.7 mph 26.5 mph N/A   Overcast
12:15 PM 37.4 °F 27.8 °F 33.8 °F 87% 29.84 in 10.0 mi South 17.3 mph 24.2 mph N/A Rain Light Rain
12:35 PM 37.4 °F 27.5 °F 32.0 °F 81% 29.84 in 10.0 mi South 18.4 mph 33.4 mph N/A   Overcast
12:55 PM 37.4 °F 27.5 °F 32.0 °F 81% 29.84 in 10.0 mi South 18.4 mph 28.8 mph N/A   Overcast
1:15 PM 39.2 °F 29.8 °F 32.0 °F 75% 29.84 in 10.0 mi SSE 18.4 mph 24.2 mph N/A   Overcast
1:35 PM 39.2 °F 30.5 °F 32.0 °F 75% 29.85 in 10.0 mi South 16.1 mph 27.6 mph N/A   Overcast
1:55 PM 39.2 °F 31.2 °F 32.0 °F 75% 29.86 in 10.0 mi South 13.8 mph 25.3 mph N/A   Overcast
2:15 PM 39.2 °F 30.2 °F 32.0 °F 75% 29.87 in 10.0 mi South 17.3 mph 27.6 mph N/A   Overcast
2:35 PM 41.0 °F 33.1 °F 32.0 °F 70% 29.88 in 10.0 mi South 15.0 mph 23.0 mph N/A   Overcast
2:55 PM 41.0 °F 34.7 °F 32.0 °F 70% 29.89 in 10.0 mi SSW 10.4 mph 17.3 mph N/A   Overcast
3:15 PM 41.0 °F 32.2 °F 32.0 °F 70% 29.89 in 10.0 mi South 18.4 mph 25.3 mph N/A   Overcast
3:35 PM 41.0 °F 33.9 °F 32.0 °F 70% 29.89 in 10.0 mi South 12.7 mph 23.0 mph N/A   Overcast
3:55 PM 41.0 °F 33.9 °F 32.0 °F 70% 29.90 in 10.0 mi South 12.7 mph 23.0 mph N/A   Overcast
4:15 PM 41.0 °F 32.2 °F 32.0 °F 70% 29.90 in - SSW 18.4 mph - N/A   Unknown
4:35 PM 41.0 °F 34.3 °F 32.0 °F 70% 29.92 in 10.0 mi South 11.5 mph 24.2 mph N/A   Overcast
4:55 PM 39.2 °F 31.6 °F 32.0 °F 75% 29.93 in 10.0 mi South 12.7 mph 17.3 mph N/A   Overcast
5:15 PM 39.2 °F 30.5 °F 32.0 °F 75% 29.93 in 10.0 mi South 16.1 mph 20.7 mph N/A   Overcast
5:35 PM 37.4 °F 28.9 °F 32.0 °F 81% 29.94 in 10.0 mi South 13.8 mph 24.2 mph N/A   Overcast
5:55 PM 37.4 °F 31.4 °F 32.0 °F 81% 29.94 in 10.0 mi South 8.1 mph 18.4 mph N/A   Overcast
6:15 PM 37.4 °F 30.3 °F 32.0 °F 81% 29.95 in 10.0 mi South 10.4 mph 18.4 mph N/A   Overcast
6:55 PM 39.2 °F 32.0 °F 32.0 °F 75% 29.96 in 10.0 mi South 11.5 mph 17.3 mph N/A   Overcast
7:15 PM 37.4 °F 29.8 °F 32.0 °F 81% 29.96 in 10.0 mi South 11.5 mph 18.4 mph N/A   Overcast
7:35 PM 37.4 °F 31.4 °F 32.0 °F 81% 29.97 in 10.0 mi South 8.1 mph 17.3 mph N/A   Overcast
7:55 PM 37.4 °F 30.3 °F 32.0 °F 81% 29.97 in 10.0 mi SSW 10.4 mph 17.3 mph N/A   Overcast
8:15 PM 37.4 °F 32.1 °F 32.0 °F 81% 29.98 in 10.0 mi SSW 6.9 mph - N/A   Mostly Cloudy
8:35 PM 37.4 °F 32.1 °F 32.0 °F 81% 29.98 in 10.0 mi South 6.9 mph - N/A   Mostly Cloudy
8:55 PM 37.4 °F 32.8 °F 33.8 °F 87% 29.99 in 10.0 mi South 5.8 mph - N/A   Mostly Cloudy
9:15 PM 37.4 °F 32.1 °F 32.0 °F 81% 29.99 in 10.0 mi SSW 6.9 mph - N/A   Overcast
9:35 PM 37.4 °F 34.9 °F 32.0 °F 81% 29.99 in 10.0 mi SSW 3.5 mph - N/A   Overcast
9:55 PM 37.4 °F - 32.0 °F 81% 29.98 in 10.0 mi Calm Calm - N/A   Overcast
10:15 PM 37.4 °F 34.9 °F 32.0 °F 81% 29.96 in 10.0 mi SE 3.5 mph - N/A   Overcast
10:35 PM 37.4 °F 34.9 °F 32.0 °F 81% 29.97 in 10.0 mi South 3.5 mph - N/A   Overcast
10:55 PM 37.4 °F 33.8 °F 32.0 °F 81% 29.97 in 10.0 mi South 4.6 mph - N/A   Overcast
11:35 PM 37.4 °F 34.9 °F 33.8 °F 87% 29.95 in 10.0 mi SSE 3.5 mph - N/A Rain Light Rain
11:55 PM 37.4 °F 32.1 °F 35.6 °F 93% 29.94 in 10.0 mi SSW 6.9 mph - N/A Rain Rain